Location: Caixon
(43.4106°N, 0.0273°E)
Time: 16:11:36
(UTC+00:00)

Cosmos 2322 Rocket - Pass Details

Date: 16 October 2021
Orbit: 832 x 851 km, 71.0° (Epoch: 28 November)

Event Time Altitude Azimuth Distance (km) Brightness Sun altitude
Rises 05:09:52 0° 338° (NNW) 3,398 5.1 -12.6°
Reaches altitude 10° 05:12:22 10° 342° (NNW) 2,463 4.4 -12.1°
Maximum altitude 05:17:56 58° 62° (ENE) 975 2.9 -11.1°
Drops below altitude 10° 05:23:30 10° 141° (SE) 2,461 5.3 -10.1°
Sets 05:25:59 0° 145° (SE) 3,395 5.9 -9.7°
